Погода в Студенце

Россия / Республика Коми     62°09′59″N   50°30′26″E
темп.,
°C
ветер,
м/с
пор.,
м/с
влажн.,
%
обл.,
%
осадки,
мм/ч
давл.,
гПа
погр.,
м
16 апреля, пт
пт1600:00−1ссз25772 0.0 1029111
03:00−1сз11793 0.0 103124
06:000зсз12745 0.0 1032120
09:00+4з34485 0.0 10321012
12:00+7з354793 0.0 10311566
15:00+7зсз3751100 0.0 10301659
18:00+6з3765100 0.0 1029311
21:00+2з28855 0.0 1030175
17 апреля, сб
сб1700:00+1зсз29925 0.0 1030231
03:00−1з28955 0.0 1030196
06:00+1з3985100 0.0 1029393
09:00+5зсз41068100 0.0 1028846
12:00+9зсз6115347 0.0 10261544
15:00+9зсз6125993 0.1 10251634
18:00+7сз5136432 0.1 10251463
21:00+5ссз5127296 0.3 10261401
18 апреля, вс
вс1800:00+1с497362 0.1 10291055
03:00−1ссв38705 0.1 1032651
06:00−1св46595 0.0 1034847
09:00+1всв35382 0.0 10361204
12:00+3всв34250 0.0 10361636
15:00+4всв33240 0.0 10371762
18:00+2всв24321 0.0 1037313
21:00−1в23465 0.0 103849
19 апреля, пн
пн1900:00−1вюв12465 0.0 103936
03:00−2ю11475 0.0 104020
06:000ююз12425 0.0 1041189
09:00+3юз1228100 0.0 1040993
12:00+6юз22240 0.0 10391395
15:00+7зюз23240 0.0 10371441
18:00+5зюз11370 0.0 103723
21:00+1юз22507 0.0 103719
20 апреля, вт
вт2000:000зюз235848 0.0 103758
03:00−1зюз246113 0.0 103782
06:00+1зюз25535 0.0 1037173
09:00+7з23375 0.0 1035745
12:00+9з22303 0.0 10341174
15:00+11зюз22285 0.0 10331322
18:00+9юз11383 0.0 103211
21:00+5юв12490 0.0 103111